#timestamp,LO_Frequency,Hit,StdDev 
1616392815.5,286046999.3,N
1616392835.3,286046997.2,N
1616392855.2,286046996.5,N
1616392875.0,286046999.6,N
1616392875.9,286046999.6,N
1616392895.8,286046997.7,N
1616392915.6,286046996.8,N
1616392935.4,286046997.3,N
1616392955.3,286046997.7,N
1616392975.1,286046995.0,Y
1616392995.8,286046999.5,P
1616393015.7,286046997.1,P
1616393035.5,286046997.3,N
1616393055.4,286046997.4,N
1616393075.2,286046995.5,Y
1616393095.0,286046999.1,P
1616393095.9,286046999.1,N
1616393115.8,286046998.5,N
1616393135.6,286046998.2,Y
1616393155.4,286047001.9,P
1616393175.3,286047002.0,N
1616393195.1,286047002.7,N
1616393215.9,286046999.8,N
1616393235.7,286047000.7,N
1616393255.5,286047000.6,N
1616393275.4,286047000.1,N
1616393295.2,286047002.3,N
1616393315.0,286047000.3,N
1616393315.9,286047000.3,N
1616393335.8,286047002.4,N
1616393355.6,286047002.8,N
1616393375.5,286047000.4,N
1616393395.3,286047000.5,N
1616393415.1,286046998.1,N
1616393435.9,286046998.8,N
1616393455.7,286046998.7,N
1616393475.5,286046999.3,N
1616393495.4,286047001.1,N
1616393515.2,286047001.2,N
1616393535.0,286047000.4,N
1616393536.0,286047000.4,N
1616393555.8,286046998.4,N
1616393575.6,286046998.7,N
1616393595.5,286046998.4,N
1616393615.3,286046998.3,N
1616393635.1,286046998.1,N
1616393655.9,286046998.6,N
1616393675.7,286047000.4,N
1616393695.6,286047000.6,N
1616393715.4,286046998.6,N
1616393735.2,286047000.5,N
1616393755.1,286046999.3,N
1616393756.0,286046999.3,N
1616393775.8,286046998.9,N
1616393795.6,286047001.0,N
1616393815.5,286046998.4,N
1616393835.3,286046999.2,N
1616393855.2,286047000.8,N
1616393875.9,286047000.9,N
1616393895.7,286047000.8,N
1616393915.6,286046998.6,N
1616393935.4,286046998.3,N
1616393955.2,286047001.2,N
1616393975.1,286046998.5,N
1616393976.0,286046998.5,N
1616393995.8,286046998.9,N
1616394015.7,286046999.3,N
1616394035.5,286046999.2,N
1616394055.3,286046999.2,N
1616394075.2,286046999.4,N
1616394095.9,286046999.4,N
1616394115.7,286046996.7,Y
1616394135.6,286046998.7,P
1616394155.4,286046999.3,N
1616394175.3,286046999.5,N
1616394195.1,286046999.1,Y
1616394196.0,286046999.1,P
1616394215.8,286046998.9,P
1616394235.7,286046998.8,P
1616394255.5,286046999.3,Y
1616394275.3,286046999.0,P
1616394295.2,286046999.1,P
1616394315.0,286046998.3,P
1616394315.9,286046998.3,Y
1616394335.8,286047001.1,P
1616394355.6,286047000.9,N
1616394375.4,286047002.4,N
1616394395.3,286047000.3,N
1616394415.1,286046998.1,N
1616394435.8,286047001.2,N
1616394455.7,286047000.5,N
1616394475.5,286047000.0,N
1616394495.4,286047000.6,N
1616394515.2,286046999.7,N
1616394535.0,286047000.2,N
1616394535.9,286047000.2,N
1616394555.8,286047001.6,N
1616394575.6,286047002.8,N
1616394595.4,286047001.8,N
1616394615.3,286047002.5,N
1616394635.1,286046999.9,N
1616394655.9,286047000.7,N
1616394675.7,286047001.0,N
1616394695.5,286047001.1,N
1616394715.4,286046999.9,N
1616394735.2,286047002.6,N
1616394755.0,286047000.3,N
1616394755.9,286047000.3,N
1616394775.8,286047000.8,N
1616394795.6,286047001.2,N
1616394815.5,286047000.8,N
1616394835.3,286047001.0,N
1616394855.1,286047002.5,N
1616394875.9,286047002.5,N
1616394895.7,286047011.9,Y
1616394915.5,286047001.1,P
1616394935.4,286047000.8,P
1616394955.2,286047000.8,P
1616394975.1,286046998.1,Y
1616394976.0,286046998.1,P
1616394995.8,286046999.3,N
1616395015.6,286046999.1,N
1616395035.5,286046998.4,N
1616395055.3,286046998.1,N
1616395075.1,286046998.1,N
1616395095.9,286047002.0,N
1616395115.7,286047004.2,Y
1616395135.6,286047003.5,P
1616395155.4,286047001.7,N
1616395175.2,286047004.6,N
1616395195.1,286047007.0,Y
1616395196.0,286047007.0,P
1616395215.8,286047007.6,P
1616395235.7,286047007.1,N
1616395255.5,286047005.7,N
1616395275.3,286047003.5,N
1616395295.2,286047004.5,N
1616395315.9,286047005.9,Y
1616395335.7,286046997.1,P
1616395355.6,286046997.6,N
1616395375.4,286046997.2,N
1616395395.3,286046997.2,N
1616395415.1,286046996.5,N
1616395416.0,286046996.5,N
1616395435.8,286046998.1,N
1616395455.7,286046998.2,N
1616395475.5,286046999.7,N
1616395495.3,286047002.1,N
1616395515.2,286047003.8,N
1616395535.0,286047005.8,N
1616395535.9,286047005.8,N
1616395555.8,286047003.0,N
1616395575.6,286047005.9,N
1616395595.4,286047005.0,N
1616395615.3,286047002.3,N
1616395635.1,286047000.9,N
1616395655.8,286047000.7,N
1616395675.7,286046999.2,N
1616395695.5,286046999.6,N
1616395715.3,286046995.5,N
1616395735.2,286046994.9,N
1616395755.0,286046995.7,N
1616395755.9,286046995.7,N
1616395775.8,286046994.1,N
1616395795.6,286046993.9,N
1616395815.4,286046993.8,N
1616395835.3,286046996.9,N
1616395855.1,286046999.5,N
1616395875.9,286046999.9,N
1616395895.7,286047003.4,N
1616395915.5,286047003.7,N
1616395935.4,286047005.2,N
1616395955.2,286047003.5,N
1616395975.0,286047002.5,N
1616395975.9,286047002.5,N
1616395995.8,286047001.6,N
1616396015.6,286047003.3,N
1616396035.4,286047003.4,N
1616396055.3,286047006.0,N
1616396075.1,286047002.6,N
1616396095.9,286047003.8,N
1616396115.7,286047004.4,N
1616396165.6,286046999.8,E
1616396175.5,286047001.6,N
1616396195.3,286047003.8,P
1616396215.2,286047003.4,P
1616396235.9,286047002.1,N
1616396255.7,286047003.5,Y
1616396275.6,286046998.1,P
1616396295.4,286046999.3,N
1616396315.3,286046996.5,N
1616396335.1,286046997.7,N
1616396336.0,286046997.7,N
1616396355.8,286046996.8,N
1616396375.7,286046996.6,N
1616396395.5,286046998.8,N
